FLOCK 2E'-11

Last updated on March 12, 2018, 12:17 a.m. UTC

1 41577U 98067KB  18070.48609598  .17416888  12466-4  85478-3 0  9990
2 41577  51.6089  71.8929 0001695 227.7940 132.4139 16.43071472101519

Satellite is not in orbit.